Homer, AK

8:23 PM AKDT on September 19, 2017 (GMT -0800)
Homer

Weather History for PAHO - March, 2014

Change the Weather History Date:

Tuesday, March 4, 2014

  Actual Average Record
Temperature  
Mean Temperature 38 °F -  
Max Temperature 41 °F 33 °F 80 °F (1998)
Min Temperature 35 °F 20 °F -15 °F (1956)
Degree Days  
Heating Degree Days 27    
Moisture  
Dew Point 26 °F    
Average Humidity 64    
Maximum Humidity 70    
Minimum Humidity 59    
Precipitation  
Precipitation 0.00 in - - ()
Sea Level Pressure  
Sea Level Pressure 29.83 in    
Wind  
Wind Speed 5 mph (South)    
Max Wind Speed 13 mph    
Max Gust Speed 20 mph    
Visibility 10 miles    
Events Rain    
Averages and records for this station are not official NWS values.
T = Trace of Precipitation, MM = Missing Value Source: NWS Daily Summary

Daily Weather History Graph

Daily Weather History Graph

Search for Another Location

Airport or City:

Trip Planner

Search our weather history database for the weather conditions in past years. The results will help you decide how hot, cold, wet, or windy it might be!

Date:

Astronomy

Mar. 04, 2014 Rise Set
Actual Time 7:54 AM AKST 6:42 PM AKST
Civil Twilight 7:13 AM AKST 7:23 PM AKST
Nautical Twilight 6:25 AM AKST 8:11 PM AKST
Astronomical Twilight 5:36 AM AKST 9:00 PM AKST
Moon 8:45 AM AKST (3/4) No Moon Set
Length of Visible Light 12h 10m
Length of Day
10h 47m
Waxing Crescent, 16% of the Moon is Illuminated
Mar 4
Waxing Crescent
Mar 8
First Quarter
Mar 16
Full
Mar 23
Last Quarter
Mar 30
New

Hourly Weather History & Observations

Time (AKST) Temp. Windchill Dew Point Humidity Pressure Visibility Wind Dir Wind Speed Gust Speed Precip Events Conditions
12:53 AM 37.0 °F 33.3 °F 26.1 °F 65% 29.85 in 10.0 mi East 4.6 mph - N/A   Overcast
1:53 AM 36.0 °F 32.1 °F 27.0 °F 70% 29.86 in 10.0 mi ENE 4.6 mph - 0.00 in Rain Light Rain
2:53 AM 36.0 °F - 26.1 °F 67% 29.86 in 10.0 mi Calm Calm - 0.00 in   Overcast
3:53 AM 36.0 °F 33.3 °F 26.1 °F 67% 29.85 in 10.0 mi NE 3.5 mph - N/A   Overcast
4:53 AM 37.0 °F 31.6 °F 26.1 °F 65% 29.85 in 10.0 mi ENE 6.9 mph - N/A   Overcast
5:53 AM 37.9 °F - 26.1 °F 62% 29.85 in 10.0 mi Calm Calm - N/A   Overcast
6:53 AM 36.0 °F - 25.0 °F 64% 29.85 in 10.0 mi Calm Calm - N/A   Overcast
7:53 AM 36.0 °F - 25.0 °F 64% 29.85 in 10.0 mi Calm Calm - N/A   Overcast
8:53 AM 35.1 °F - 26.1 °F 70% 29.85 in 10.0 mi Calm Calm - N/A   Overcast
9:53 AM 37.9 °F - 26.1 °F 62% 29.85 in 10.0 mi Calm Calm - N/A   Overcast
10:53 AM 39.0 °F 32.8 °F 27.0 °F 62% 29.84 in 10.0 mi South 9.2 mph - N/A   Overcast
11:53 AM 39.9 °F 33.9 °F 28.0 °F 63% 29.84 in 10.0 mi SW 9.2 mph - N/A   Overcast
12:53 PM 41.0 °F 33.9 °F 28.0 °F 60% 29.83 in 10.0 mi SW 12.7 mph - N/A   Overcast
1:53 PM 39.9 °F 33.4 °F 27.0 °F 60% 29.83 in 10.0 mi South 10.4 mph - N/A   Mostly Cloudy
2:53 PM 39.0 °F 32.8 °F 28.0 °F 65% 29.83 in 10.0 mi SSW 9.2 mph - N/A   Scattered Clouds
3:53 PM 39.0 °F 34.0 °F 27.0 °F 62% 29.82 in 10.0 mi South 6.9 mph - N/A   Overcast
4:53 PM 37.9 °F 30.5 °F 27.0 °F 65% 29.81 in 10.0 mi SSW 11.5 mph 16.1 mph N/A   Overcast
5:53 PM 37.0 °F 29.8 °F 28.0 °F 70% 29.81 in 10.0 mi SSW 10.4 mph - N/A   Overcast
6:53 PM 37.0 °F 29.3 °F 27.0 °F 67% 29.81 in 10.0 mi South 11.5 mph 19.6 mph N/A   Overcast
7:53 PM 37.0 °F 29.8 °F 26.1 °F 65% 29.81 in 10.0 mi South 10.4 mph - N/A   Overcast
8:53 PM 37.0 °F 30.4 °F 25.0 °F 62% 29.81 in 10.0 mi South 9.2 mph - N/A   Overcast
9:53 PM 37.0 °F 28.9 °F 25.0 °F 62% 29.81 in 10.0 mi South 12.7 mph 19.6 mph N/A   Overcast
10:53 PM 37.0 °F 29.8 °F 25.0 °F 62% 29.80 in 10.0 mi South 10.4 mph 17.3 mph N/A   Overcast
11:53 PM 37.0 °F 31.6 °F 24.1 °F 59% 29.78 in 10.0 mi SSE 6.9 mph - N/A   Overcast